Location: ??????
(41.3747°N, 22.5491°E)
Time: 05:03:57
(UTC+00:00)

USA 267 - Pass Details

Date: 01 December 2020
Orbit: 1100 x 1107 km, 123.0° (Epoch: 18 January)

Event Time Altitude Azimuth Distance (km) Brightness Sun altitude
Exits shadow 15:46:42 10° 64° (ENE) 2,966 4.8 -8.6°
Reaches altitude 10° 15:46:43 10° 64° (ENE) 2,962 4.8 -8.6°
Maximum altitude 15:51:47 25° 12° (NNE) 2,065 4.4 -9.5°
Drops below altitude 10° 15:56:52 10° 321° (NW) 2,968 5.8 -10.3°
Sets 15:59:49 0° 309° (NW) 3,928 6.6 -10.9°
